This demonstration page uses our WeatherBlox Daily Observations layout. Learn more.

Hourly Observations for February 22, 2015

Temp ( °F °C ) Dew Point ( °F °C ) Humidity (%) Winds ( mph kmh ) Pressure ( in mb ) Visibility ( mi km ) Precip ( " mm )
12:15 am 00:15 Cloudy with Light Snow 19 -7 15 -9.3 84 84 NE 14 22 30.56 1035 2.5 4.02335 0 0
12:35 am 00:35 Cloudy with Light Snow 19 -7.2 15 -9.7 83 83 NNE 14 22 30.56 1035 2.5 4.02335 0 0
12:55 am 00:55 Cloudy with Light Snow 19 -7.5 14 -10.2 81 81 NNE 15 24 30.56 1035 3 4.82802 0 0
1:15 am 01:15 Cloudy with Light Snow 18 -7.7 14 -10.1 83 83 NNE 14 22 30.59 1036 2.5 4.02335 0 0
1:35 am 01:35 Cloudy with Light Snow 18 -8 14 -10 86 86 NNE 13 20 30.59 1036 3 4.82802 0 0
1:55 am 01:55 Cloudy with Light Snow 18 -8 14 -10 86 86 NNE 10 17 30.59 1036 2 3.21868 0 0
2:15 am 02:15 Cloudy with Light Snow 17 -8.2 14 -10.1 86 86 NNE 16 26 30.62 1037 2.5 4.02335 0 0
2:35 am 02:35 Cloudy with Light Snow 17 -8.5 13 -10.5 86 86 NNE 13 20 30.62 1037 2 3.21868 0 0
2:55 am 02:55 Cloudy with Light Snow 16 -8.7 13 -10.6 86 86 NNE 16 26 30.65 1038 3 4.82802 0 0
3:15 am 03:15 Cloudy with Light Snow 16 -9 12 -11.1 85 85 NNE 16 26 30.65 1038 3 4.82802 0 0
3:35 am 03:35 Cloudy with Light Snow 16 -9 12 -11.1 85 85 NNE 14 22 30.65 1038 2 3.21868 0 0
3:55 am 03:55 Cloudy with Light Snow 16 -9 12 -11.1 85 85 NNE 13 20 30.65 1038 4 6.43736 0 0
4:15 am 04:15 Cloudy 16 -9 11 -11.5 82 82 N 9 15 30.65 1038 10 16.0934 0 0
4:35 am 04:35 Cloudy 16 -9 11 -11.8 80 80 NNE 12 19 30.65 1038 10 16.0934 0 0
4:55 am 04:55 Cloudy 16 -9 11 -11.9 80 80 N 10 17 30.68 1039 10 16.0934 0 0
5:15 am 05:15 Cloudy 16 -9 10 -12 79 79 N 9 15 30.68 1039 10 16.0934 0 0
5:35 am 05:35 Cloudy 16 -9 10 -12 79 79 NNE 12 19 30.68 1039 10 16.0934 0 0
5:55 am 05:55 Cloudy with Light Snow 15 -9.4 10 -12.3 80 80 N 13 20 30.68 1039 4 6.43736 0 0
6:15 am 06:15 Cloudy 15 -9.5 11 -11.6 85 85 N 9 15 30.68 1039 7 11.26538 0 0
6:35 am 06:35 Cloudy 15 -9.5 11 -11.5 86 86 N 7 11 30.68 1039 10 16.0934 0 0
6:55 am 06:55 Cloudy 15 -9.4 11 -11.9 82 82 N 7 11 30.71 1040 10 16.0934 0 0
7:15 am 07:15 Cloudy 15 -9.5 9 -12.9 77 77 NNE 8 13 30.71 1040 10 16.0934 0 0
7:35 am 07:35 Cloudy 15 -9.7 7 -13.9 72 72 NNE 12 19 30.71 1040 10 16.0934 0 0
7:55 am 07:55 Cloudy 14 -9.8 6 -14.4 69 69 NNE 14 22 30.71 1040 10 16.0934 0 0
8:15 am 08:15 Cloudy 14 -10 6 -14.5 70 70 NNE 12 19 30.74 1041 10 16.0934 0 0
8:35 am 08:35 Cloudy 14 -10 5 -14.8 68 68 NNE 14 22 30.74 1041 10 16.0934 0 0
8:55 am 08:55 Cloudy 14 -10 5 -15 67 67 NNE 15 24 30.77 1042 10 16.0934 0 0
9:15 am 09:15 Cloudy 14 -10 4 -15.4 65 65 NNE 14 22 30.77 1042 10 16.0934 0 0
9:35 am 09:35 Cloudy 14 -10 4 -15.3 66 66 N 14 22 30.77 1042 10 16.0934 0 0
9:55 am 09:55 Cloudy 14 -9.9 3 -16.2 60 60 N 17 28 30.77 1042 10 16.0934 0 0
10:15 am 10:15 Cloudy 15 -9.7 3 -16.1 60 60 N 12 19 30.77 1042 10 16.0934 0 0
10:35 am 10:35 Cloudy 15 -9.7 3 -16 60 60 NNE 16 26 30.77 1042 10 16.0934 0 0
10:55 am 10:55 Cloudy 15 -9.7 3 -16 60 60 N 16 26 30.83 1044 10 16.0934 0 0
11:15 am 11:15 Mostly Cloudy 15 -9.5 3 -16 60 60 N 16 26 30.8 1043 10 16.0934 0 0
11:35 am 11:35 Mostly Cloudy 16 -8.8 3 -15.9 57 57 N 13 20 30.8 1043 10 16.0934 0 0
11:55 am 11:55 Cloudy 16 -8.8 4 -15.8 57 57 N 15 24 30.8 1043 10 16.0934 0 0
12:15 pm 12:15 Mostly Cloudy 17 -8.5 4 -15.6 57 57 N 16 26 30.77 1042 10 16.0934 0 0
12:35 pm 12:35 Mostly Cloudy 18 -8 5 -15.2 57 57 N 15 24 30.77 1042 10 16.0934 0 0
12:55 pm 12:55 Cloudy 18 -7.9 5 -14.8 58 58 N 16 26 30.77 1042 10 16.0934 0 0
1:15 pm 13:15 Mostly Cloudy 17 -8.2 5 -15.2 57 57 N 14 22 30.74 1041 10 16.0934 0 0
1:35 pm 13:35 Partly Cloudy 18 -8 4 -15.8 54 54 N 13 20 30.74 1041 10 16.0934 0 0
1:55 pm 13:55 Partly Cloudy 18 -8 4 -15.7 54 54 N 15 24 30.74 1041 10 16.0934 0 0
2:15 pm 14:15 Partly Cloudy 18 -7.6 5 -15.2 55 55 N 14 22 30.74 1041 10 16.0934 0 0
2:35 pm 14:35 Sunny 19 -7.5 4 -15.8 52 52 N 16 26 30.71 1040 10 16.0934 0 0
2:55 pm 14:55 Sunny 19 -7.2 3 -16.1 49 49 NNE 16 26 30.71 1040 10 16.0934 0 0
3:15 pm 15:15 Sunny 19 -7.4 2 -16.9 47 47 N 17 28 30.68 1039 10 16.0934 0 0
3:35 pm 15:35 Sunny 19 -7.5 1 -17.1 47 47 N 16 26 30.68 1039 10 16.0934 0 0
3:55 pm 15:55 Partly Cloudy 19 -7.5 1 -17.3 46 46 NNE 17 28 30.68 1039 10 16.0934 0 0
4:15 pm 16:15 Partly Cloudy 19 -7.5 -1 -18.1 43 43 N 15 24 30.71 1040 10 16.0934 0 0
4:35 pm 16:35 Sunny 18 -7.6 -1 -18.2 43 43 N 13 20 30.74 1041 10 16.0934 0 0
4:55 pm 16:55 Sunny 18 -8 0 -17.9 45 45 N 15 24 30.74 1041 10 16.0934 0 0
5:15 pm 17:15 Sunny 17 -8.2 0 -17.8 46 46 N 9 15 30.74 1041 10 16.0934 0 0
5:35 pm 17:35 Sunny 17 -8.4 1 -17.4 49 49 N 8 13 30.74 1041 10 16.0934 0 0
5:55 pm 17:55 Sunny 17 -8.6 1 -17.5 49 49 N 9 15 30.77 1042 10 16.0934 0 0
6:15 pm 18:15 Partly Cloudy 16 -9 1 -17.4 51 51 NNE 9 15 30.77 1042 10 16.0934 0 0
6:35 pm 18:35 Mostly Cloudy 15 -9.3 0 -17.8 50 50 NNE 9 15 30.77 1042 10 16.0934 0 0
6:55 pm 18:55 Partly Cloudy 14 -10.1 1 -17.3 56 56 NNE 7 11 30.83 1044 10 16.0934 0 0
7:15 pm 19:15 Clear 12 -11.2 1 -17.5 60 60 NNE 7 11 30.83 1044 10 16.0934 0 0
7:35 pm 19:35 Clear 11 -11.9 0 -17.6 63 63 NNE 7 11 30.83 1044 10 16.0934 0 0
7:55 pm 19:55 Partly Cloudy 11 -11.6 1 -17.5 62 62 NE 9 15 30.83 1044 10 16.0934 0 0
8:15 pm 20:15 Partly Cloudy 10 -12 0 -17.6 63 63 NE 6 9 30.83 1044 10 16.0934 0 0
8:35 pm 20:35 Partly Cloudy 11 -11.6 0 -17.7 61 61 NE 7 11 30.83 1044 10 16.0934 0 0
8:55 pm 20:55 Partly Cloudy 10 -12.2 0 -18 62 62 NE 8 13 30.86 1045 10 16.0934 0 0
9:15 pm 21:15 Partly Cloudy 10 -12.2 -1 -18.6 59 59 ENE 7 11 30.86 1045 10 16.0934 0 0
9:35 pm 21:35 Clear 9 -13 -2 -18.8 62 62 ENE 7 11 30.89 1046 10 16.0934 0 0
9:55 pm 21:55 Partly Cloudy 7 -14 -2 -19.1 66 66 ENE 6 9 30.92 1047 10 16.0934 0 0
10:15 pm 22:15 Clear 7 -14.1 -2 -19.1 66 66 NE 6 9 30.92 1047 10 16.0934 0 0
10:35 pm 22:35 Clear 7 -13.9 -2 -18.7 67 67 NE 3 6 30.92 1047 10 16.0934 0 0
10:55 pm 22:55 Clear 9 -12.7 -1 -18.3 63 63 NE 5 7 30.92 1047 10 16.0934 0 0
11:15 pm 23:15 Clear 9 -12.6 -2 -18.7 61 61 NE 6 9 30.92 1047 10 16.0934 0 0
11:35 pm 23:35 Clear 9 -12.8 -3 -19.2 59 59 ENE 5 7 30.92 1047 10 16.0934 0 0
11:55 pm 23:55 Clear 9 -13 -2 -19 61 61 ENE 3 6 30.92 1047 10 16.0934 0 0

Powered by AerisWeather